Location: Unspecified
(43.4354°N, 0.0000°E)
Time: 06:35:11
(UTC+00:00)

Vanguard 2 Rocket - Pass Details

Date: 18 June 2019
Orbit: 554 x 3326 km, 32.9° (Epoch: 16 July)

Event Time Altitude Azimuth Distance (km) Brightness Sun altitude
Rises 22:11:25 0° 227° (SW) 4,322 10.2 -18.6°
Reaches altitude 10° 22:14:04 10° 220° (SW) 3,655 9.7 -18.8°
Maximum altitude 22:23:17 42° 153° (SSE) 2,836 8.9 -19.5°
Drops below altitude 10° 22:38:11 10° 92° (E) 5,819 10.8 -20.5°
Sets 22:43:41 0° 87° (E) 7,102 11.3 -20.8°
